Perry, FL

1:59 PM EDT on June 25, 2017 (GMT -0400)
Perry

Weather History for K40J - February, 2013

Change the Weather History Date:

Sunday, February 10, 2013

  Actual Average (KVLD) Record (KVLD)
Temperature  
Mean Temperature 60 °F -  
Max Temperature 75 °F 64 °F 76 °F (2014)
Min Temperature 46 °F 41 °F 28 °F (2016)
Degree Days  
Heating Degree Days 4    
Growing Degree Days 10 (Base 50)    
Moisture  
Dew Point 50 °F    
Average Humidity 67    
Maximum Humidity 86    
Minimum Humidity 48    
Precipitation  
Precipitation 0.01 in - - ()
Sea Level Pressure  
Sea Level Pressure 30.19 in    
Wind  
Wind Speed 7 mph (SE)    
Max Wind Speed 14 mph    
Max Gust Speed 26 mph    
Averages and records for this station are not official NWS values.
T = Trace of Precipitation, MM = Missing Value Source: NWS Daily Summary

Daily Weather History Graph

Daily Weather History Graph

Search for Another Location

Airport or City:

Trip Planner

Search our weather history database for the weather conditions in past years. The results will help you decide how hot, cold, wet, or windy it might be!

Date:

Astronomy

Feb. 10, 2013 Rise Set
Actual Time 7:18 AM EST 6:19 PM EST
Civil Twilight 6:53 AM EST 6:43 PM EST
Nautical Twilight 6:25 AM EST 7:12 PM EST
Astronomical Twilight 5:57 AM EST 7:40 PM EST
Moon 7:12 AM EST (2/10) 7:01 PM EST (2/10)
Length of Visible Light 11h 50m
Length of Day
11h 01m
New Moon, 0% of the Moon is Illuminated
Feb 10
New Moon
Feb 17
First Quarter
Feb 25
Full
Mar 4
Last Quarter
Mar 11
New

Hourly Weather History & Observations

Time (EST) Temp. Dew Point Humidity Pressure Visibility Wind Dir Wind Speed Gust Speed Precip Events Conditions
12:53 AM 51.1 °F 39.9 °F 66% 30.22 in - ENE 6.9 mph - N/A   Unknown
1:53 AM 48.9 °F 39.9 °F 71% 30.22 in - ENE 4.6 mph - N/A   Unknown
2:53 AM 48.0 °F 39.9 °F 74% 30.21 in - ENE 3.5 mph - N/A   Unknown
3:53 AM 48.9 °F 41.0 °F 74% 30.21 in - Variable 4.6 mph - N/A   Unknown
4:53 AM 48.0 °F 42.1 °F 80% 30.20 in - East 3.5 mph - N/A   Unknown
5:53 AM 48.9 °F 43.0 °F 80% 30.21 in - Variable 4.6 mph - N/A   Unknown
6:53 AM 46.9 °F 43.0 °F 86% 30.24 in - NE 3.5 mph - N/A   Unknown
7:53 AM 48.9 °F 44.1 °F 83% 30.26 in - Calm Calm - N/A   Unknown
8:53 AM 54.0 °F 46.9 °F 77% 30.25 in - Variable 4.6 mph - N/A   Unknown
9:53 AM 61.0 °F 51.1 °F 70% 30.26 in - ESE 9.2 mph - N/A   Unknown
10:53 AM 69.1 °F 52.0 °F 54% 30.26 in - SE 13.8 mph 18.4 mph N/A   Unknown
11:53 AM 72.0 °F 53.1 °F 51% 30.23 in - SE 11.5 mph 26.5 mph N/A   Unknown
12:53 PM 73.9 °F 55.0 °F 52% 30.22 in - SE 11.5 mph 17.3 mph N/A   Unknown
1:53 PM 75.9 °F 55.0 °F 48% 30.19 in - SE 13.8 mph 19.6 mph N/A   Unknown
2:53 PM 75.9 °F 55.9 °F 50% 30.17 in - SSE 12.7 mph - N/A   Unknown
3:53 PM 75.9 °F 55.9 °F 50% 30.15 in - SSE 10.4 mph - N/A   Unknown
4:53 PM 75.9 °F 55.9 °F 50% 30.15 in - SSE 11.5 mph - N/A   Unknown
5:53 PM 73.0 °F 55.9 °F 55% 30.13 in - SSE 8.1 mph - N/A   Unknown
6:53 PM 69.1 °F 55.9 °F 63% 30.13 in - SE 6.9 mph - N/A   Unknown
7:53 PM 66.0 °F 55.9 °F 70% 30.12 in - SE 6.9 mph - N/A   Unknown
8:53 PM 66.0 °F 55.9 °F 70% 30.13 in - South 3.5 mph - N/A   Unknown
9:53 PM 63.0 °F 55.9 °F 78% 30.13 in - South 5.8 mph - N/A   Unknown
10:53 PM 66.0 °F 55.9 °F 70% 30.13 in - SSE 6.9 mph - N/A   Unknown
11:53 PM 64.0 °F 55.9 °F 75% 30.14 in - SE 6.9 mph - 0.01 in   Unknown